Terminal Aerodrome Forecast
Issued by NWS Charleston, SC

Home | Current Version | Previous Version | Text Only | Print | Product List | Glossary On
Versions: 1 2 3 4 5 6 7 8 9 10 11 12 13 14 15 16 17 18 19 20 21 22 23
000
FTUS42 KCHS 192300
TAFCHS
TAF
KCHS 192323Z 2000/2024 05008KT 5SM -RA SCT025 OVC060
     FM200130 06008KT P6SM SCT020 BKN050
      TEMPO 2009/2012 4SM -SHRA BR BKN030
     FM201200 04012G17KT P6SM SCT035 BKN070
     FM201900 05013G18KT 6SM -SHRA SCT030 BKN050=

USA.gov is the U.S. government's official web portal to all federal, state and local government web resources and services.